Time,TemperatureF,DewpointF,PressureIn,WindDirection,WindDirectionDegrees,WindSpeedMPH,WindSpeedGustMPH,Humidity,HourlyPrecipIn,Conditions,Clouds,dailyrainin,SoftwareType,DateUTC
2013-03-12 00:00:00,24.4,17.9,29.99,SW,233,2.0,3.0,76,0.00,,,0.00,WUHU216DAVISVP2,2013-03-12 05:00:00,
2013-03-12 00:05:00,24.4,17.9,29.99,West,266,1.0,4.0,76,0.00,,,0.00,WUHU216DAVISVP2,2013-03-12 05:05:00,
2013-03-12 00:08:00,24.4,17.9,29.99,West,274,2.0,4.0,76,0.00,,,0.00,WUHU216DAVISVP2,2013-03-12 05:08:00,
2013-03-12 00:09:00,24.4,17.9,29.99,West,266,1.0,4.0,76,0.00,,,0.00,WUHU216DAVISVP2,2013-03-12 05:09:00,
2013-03-12 00:13:00,24.4,17.9,29.99,West,264,1.0,3.0,76,0.00,,,0.00,WUHU216DAVISVP2,2013-03-12 05:13:00,
2013-03-12 00:16:00,24.3,17.8,29.99,WSW,246,1.0,3.0,76,0.00,,,0.00,WUHU216DAVISVP2,2013-03-12 05:16:00,
2013-03-12 00:17:00,24.4,17.9,29.99,WNW,285,1.0,3.0,76,0.00,,,0.00,WUHU216DAVISVP2,2013-03-12 05:17:00,
2013-03-12 00:19:00,24.4,17.9,30.00,WSW,243,0.0,3.0,76,0.00,,,0.00,WUHU216DAVISVP2,2013-03-12 05:19:00,
2013-03-12 00:20:00,24.4,17.9,30.00,WNW,300,1.0,3.0,76,0.00,,,0.00,WUHU216DAVISVP2,2013-03-12 05:20:00,
2013-03-12 00:22:00,24.4,17.9,30.00,WSW,250,3.0,4.0,76,0.00,,,0.00,WUHU216DAVISVP2,2013-03-12 05:22:00,
2013-03-12 00:24:00,24.5,18.0,30.00,West,265,4.0,6.0,76,0.00,,,0.00,WUHU216DAVISVP2,2013-03-12 05:24:00,
2013-03-12 00:25:00,24.6,18.1,30.00,West,281,3.0,6.0,76,0.00,,,0.00,WUHU216DAVISVP2,2013-03-12 05:25:00,
2013-03-12 00:27:00,24.7,18.2,30.00,West,275,2.0,6.0,76,0.00,,,0.00,WUHU216DAVISVP2,2013-03-12 05:27:00,
2013-03-12 00:28:00,24.7,18.2,30.00,West,278,2.0,6.0,76,0.00,,,0.00,WUHU216DAVISVP2,2013-03-12 05:28:00,
2013-03-12 00:29:00,24.8,18.3,30.00,West,270,2.0,6.0,76,0.00,,,0.00,WUHU216DAVISVP2,2013-03-12 05:29:00,
2013-03-12 00:31:00,24.8,18.3,29.99,SW,236,2.0,6.0,76,0.00,,,0.00,WUHU216DAVISVP2,2013-03-12 05:31:00,
2013-03-12 00:32:00,24.9,18.4,29.99,WSW,243,2.0,6.0,76,0.00,,,0.00,WUHU216DAVISVP2,2013-03-12 05:32:00,
2013-03-12 00:36:00,24.9,18.4,30.00,West,267,3.0,6.0,76,0.00,,,0.00,WUHU216DAVISVP2,2013-03-12 05:36:00,
2013-03-12 00:40:00,24.9,18.4,30.00,WNW,297,2.0,6.0,76,0.00,,,0.00,WUHU216DAVISVP2,2013-03-12 05:40:00,
2013-03-12 00:44:00,24.8,18.6,30.00,WSW,254,4.0,5.0,77,0.00,,,0.00,WUHU216DAVISVP2,2013-03-12 05:44:00,
2013-03-12 00:49:00,24.7,18.5,30.00,West,281,2.0,6.0,77,0.00,,,0.00,WUHU216DAVISVP2,2013-03-12 05:49:00,
2013-03-12 00:53:00,24.6,18.4,30.00,WNW,285,2.0,6.0,77,0.00,,,0.00,WUHU216DAVISVP2,2013-03-12 05:53:00,
2013-03-12 00:57:00,24.5,18.6,30.00,West,280,1.0,6.0,78,0.00,,,0.00,WUHU216DAVISVP2,2013-03-12 05:57:00,
2013-03-12 01:02:00,24.3,18.4,30.00,NNW,336,1.0,6.0,78,0.00,,,0.00,WUHU216DAVISVP2,2013-03-12 06:02:00,
2013-03-12 01:06:00,24.1,18.2,30.01,West,270,0.0,5.0,78,0.00,,,0.00,WUHU216DAVISVP2,2013-03-12 06:06:00,
2013-03-12 01:10:00,24.0,18.4,30.01,West,269,1.0,5.0,79,0.00,,,0.00,WUHU216DAVISVP2,2013-03-12 06:10:00,
2013-03-12 01:14:00,23.9,18.6,30.01,WNW,286,0.0,4.0,80,0.00,,,0.00,WUHU216DAVISVP2,2013-03-12 06:14:00,
2013-03-12 01:18:00,23.8,18.5,30.00,NW,321,1.0,4.0,80,0.00,,,0.00,WUHU216DAVISVP2,2013-03-12 06:18:00,
2013-03-12 01:22:00,23.8,18.5,30.00,WNW,301,0.0,4.0,80,0.00,,,0.00,WUHU216DAVISVP2,2013-03-12 06:22:00,
2013-03-12 01:33:00,23.9,18.9,30.00,NW,306,2.0,4.0,81,0.00,,,0.00,WUHU216DAVISVP2,2013-03-12 06:33:00,
2013-03-12 01:38:00,24.3,19.6,30.00,WNW,291,2.0,4.0,82,0.00,,,0.00,WUHU216DAVISVP2,2013-03-12 06:38:00,
2013-03-12 01:43:00,24.6,19.9,30.01,NW,311,3.0,4.0,82,0.00,,,0.00,WUHU216DAVISVP2,2013-03-12 06:43:00,
2013-03-12 01:48:00,24.8,20.1,30.01,NW,326,2.0,4.0,82,0.00,,,0.00,WUHU216DAVISVP2,2013-03-12 06:48:00,
2013-03-12 01:53:00,24.9,20.2,30.01,WNW,303,1.0,4.0,82,0.00,,,0.00,WUHU216DAVISVP2,2013-03-12 06:53:00,
2013-03-12 01:58:00,25.0,20.0,30.02,West,262,1.0,4.0,81,0.00,,,0.00,WUHU216DAVISVP2,2013-03-12 06:58:00,
2013-03-12 02:03:00,24.9,19.9,30.02,West,275,3.0,4.0,81,0.00,,,0.00,WUHU216DAVISVP2,2013-03-12 07:03:00,
2013-03-12 02:08:00,24.8,19.8,30.03,NNW,328,1.0,4.0,81,0.00,,,0.00,WUHU216DAVISVP2,2013-03-12 07:08:00,
2013-03-12 02:13:00,24.7,20.0,30.03,WNW,300,2.0,4.0,82,0.00,,,0.00,WUHU216DAVISVP2,2013-03-12 07:13:00,
2013-03-12 02:18:00,24.6,19.9,30.03,NNW,333,0.0,4.0,82,0.00,,,0.00,WUHU216DAVISVP2,2013-03-12 07:18:00,
2013-03-12 02:23:00,24.7,20.3,30.03,WNW,299,1.0,4.0,83,0.00,,,0.00,WUHU216DAVISVP2,2013-03-12 07:23:00,
2013-03-12 02:28:00,24.8,20.4,30.04,NW,309,2.0,4.0,83,0.00,,,0.00,WUHU216DAVISVP2,2013-03-12 07:28:00,
2013-03-12 02:33:00,25.0,20.8,30.03,NNW,329,1.0,4.0,84,0.00,,,0.00,WUHU216DAVISVP2,2013-03-12 07:33:00,
2013-03-12 02:38:00,25.2,21.0,30.04,WNW,288,2.0,4.0,84,0.00,,,0.00,WUHU216DAVISVP2,2013-03-12 07:38:00,
2013-03-12 02:43:00,25.2,21.0,30.03,WNW,300,2.0,4.0,84,0.00,,,0.00,WUHU216DAVISVP2,2013-03-12 07:43:00,
2013-03-12 02:48:00,25.3,21.1,30.04,WNW,285,2.0,4.0,84,0.00,,,0.00,WUHU216DAVISVP2,2013-03-12 07:48:00,
2013-03-12 02:53:00,25.4,21.2,30.04,NNW,334,2.0,4.0,84,0.00,,,0.00,WUHU216DAVISVP2,2013-03-12 07:53:00,
2013-03-12 02:58:00,25.5,21.3,30.03,WNW,298,2.0,4.0,84,0.00,,,0.00,WUHU216DAVISVP2,2013-03-12 07:58:00,
2013-03-12 03:03:00,25.5,21.3,30.04,NNW,347,2.0,4.0,84,0.00,,,0.00,WUHU216DAVISVP2,2013-03-12 08:03:00,
2013-03-12 03:08:00,25.5,21.3,30.03,WNW,301,2.0,4.0,84,0.00,,,0.00,WUHU216DAVISVP2,2013-03-12 08:08:00,
2013-03-12 03:13:00,25.5,21.3,30.03,NW,313,0.0,4.0,84,0.00,,,0.00,WUHU216DAVISVP2,2013-03-12 08:13:00,
2013-03-12 03:18:00,25.4,21.2,30.03,WNW,302,1.0,4.0,84,0.00,,,0.00,WUHU216DAVISVP2,2013-03-12 08:18:00,
2013-03-12 03:23:00,25.3,21.1,30.03,WNW,285,0.0,4.0,84,0.00,,,0.00,WUHU216DAVISVP2,2013-03-12 08:23:00,
2013-03-12 03:28:00,25.1,20.9,30.04,NW,318,0.0,3.0,84,0.00,,,0.00,WUHU216DAVISVP2,2013-03-12 08:28:00,
2013-03-12 03:33:00,25.0,21.1,30.04,NNW,339,0.0,3.0,85,0.00,,,0.00,WUHU216DAVISVP2,2013-03-12 08:33:00,
2013-03-12 03:38:00,24.9,21.0,30.04,North,8,1.0,3.0,85,0.00,,,0.00,WUHU216DAVISVP2,2013-03-12 08:38:00,
2013-03-12 03:43:00,25.1,21.5,30.04,WNW,300,1.0,4.0,86,0.00,,,0.00,WUHU216DAVISVP2,2013-03-12 08:43:00,
2013-03-12 03:48:00,25.1,21.2,30.04,NW,326,0.0,4.0,85,0.00,,,0.00,WUHU216DAVISVP2,2013-03-12 08:48:00,
2013-03-12 03:53:00,25.0,21.1,30.04,WNW,298,1.0,4.0,85,0.00,,,0.00,WUHU216DAVISVP2,2013-03-12 08:53:00,
2013-03-12 03:58:00,24.7,20.8,30.04,WNW,294,0.0,4.0,85,0.00,,,0.00,WUHU216DAVISVP2,2013-03-12 08:58:00,
2013-03-12 04:03:00,24.4,20.5,30.04,WSW,244,1.0,2.0,85,0.00,,,0.00,WUHU216DAVISVP2,2013-03-12 09:03:00,
2013-03-12 04:08:00,24.2,20.6,30.04,West,277,0.0,2.0,86,0.00,,,0.00,WUHU216DAVISVP2,2013-03-12 09:08:00,
2013-03-12 04:13:00,24.2,20.9,30.03,WNW,298,0.0,2.0,87,0.00,,,0.00,WUHU216DAVISVP2,2013-03-12 09:13:00,
2013-03-12 04:18:00,24.2,20.9,30.03,West,273,0.0,2.0,87,0.00,,,0.00,WUHU216DAVISVP2,2013-03-12 09:18:00,
2013-03-12 04:23:00,24.0,20.7,30.03,West,275,0.0,2.0,87,0.00,,,0.00,WUHU216DAVISVP2,2013-03-12 09:23:00,
2013-03-12 04:28:00,23.8,20.5,30.03,West,276,0.0,2.0,87,0.00,,,0.00,WUHU216DAVISVP2,2013-03-12 09:28:00,
2013-03-12 04:33:00,23.8,20.7,30.03,SW,236,1.0,2.0,88,0.00,,,0.00,WUHU216DAVISVP2,2013-03-12 09:33:00,
2013-03-12 04:38:00,23.8,20.7,30.02,WSW,247,1.0,2.0,88,0.00,,,0.00,WUHU216DAVISVP2,2013-03-12 09:38:00,
2013-03-12 04:43:00,23.8,20.7,30.02,WSW,242,2.0,2.0,88,0.00,,,0.00,WUHU216DAVISVP2,2013-03-12 09:43:00,
2013-03-12 04:48:00,23.5,20.2,30.02,WSW,255,1.0,2.0,87,0.00,,,0.00,WUHU216DAVISVP2,2013-03-12 09:48:00,
2013-03-12 04:53:00,23.1,20.0,30.02,West,273,3.0,3.0,88,0.00,,,0.00,WUHU216DAVISVP2,2013-03-12 09:53:00,
2013-03-12 04:58:00,23.2,20.2,30.02,WSW,249,3.0,5.0,88,0.00,,,0.00,WUHU216DAVISVP2,2013-03-12 09:58:00,
2013-03-12 05:03:00,23.5,20.7,30.02,West,278,2.0,5.0,89,0.00,,,0.00,WUHU216DAVISVP2,2013-03-12 10:03:00,
2013-03-12 05:08:00,24.0,21.2,30.02,WNW,292,3.0,5.0,89,0.00,,,0.00,WUHU216DAVISVP2,2013-03-12 10:08:00,
2013-03-12 05:13:00,24.3,21.2,30.02,WNW,288,3.0,5.0,88,0.00,,,0.00,WUHU216DAVISVP2,2013-03-12 10:13:00,
2013-03-12 05:18:00,24.4,21.3,30.02,West,278,3.0,5.0,88,0.00,,,0.00,WUHU216DAVISVP2,2013-03-12 10:18:00,
2013-03-12 05:23:00,24.8,21.7,30.02,WSW,252,4.0,6.0,88,0.00,,,0.00,WUHU216DAVISVP2,2013-03-12 10:23:00,
2013-03-12 05:28:00,25.1,22.0,30.02,WSW,257,3.0,6.0,88,0.00,,,0.00,WUHU216DAVISVP2,2013-03-12 10:28:00,
2013-03-12 05:33:00,25.3,21.9,30.02,NW,307,4.0,6.0,87,0.00,,,0.00,WUHU216DAVISVP2,2013-03-12 10:33:00,
2013-03-12 05:38:00,25.5,22.2,30.03,WSW,252,6.0,6.0,87,0.00,,,0.00,WUHU216DAVISVP2,2013-03-12 10:38:00,
2013-03-12 05:43:00,25.5,21.9,30.03,West,264,2.0,6.0,86,0.00,,,0.00,WUHU216DAVISVP2,2013-03-12 10:43:00,
2013-03-12 05:48:00,25.3,21.7,30.03,WNW,291,4.0,6.0,86,0.00,,,0.00,WUHU216DAVISVP2,2013-03-12 10:48:00,
2013-03-12 05:53:00,25.2,21.6,30.03,WSW,258,3.0,6.0,86,0.00,,,0.00,WUHU216DAVISVP2,2013-03-12 10:53:00,
2013-03-12 05:58:00,25.0,21.4,30.03,WSW,239,2.0,5.0,86,0.00,,,0.00,WUHU216DAVISVP2,2013-03-12 10:58:00,
2013-03-12 06:03:00,25.0,21.6,30.04,West,259,3.0,8.0,87,0.00,,,0.00,WUHU216DAVISVP2,2013-03-12 11:03:00,
2013-03-12 06:08:00,25.0,21.6,30.04,West,275,1.0,8.0,87,0.00,,,0.00,WUHU216DAVISVP2,2013-03-12 11:08:00,
2013-03-12 06:13:00,25.1,21.5,30.04,WSW,246,2.0,8.0,86,0.00,,,0.00,WUHU216DAVISVP2,2013-03-12 11:13:00,
2013-03-12 06:18:00,25.0,21.4,30.04,WSW,256,4.0,7.0,86,0.00,,,0.00,WUHU216DAVISVP2,2013-03-12 11:18:00,
2013-03-12 06:23:00,24.9,21.3,30.05,West,278,3.0,9.0,86,0.00,,,0.00,WUHU216DAVISVP2,2013-03-12 11:23:00,
2013-03-12 06:28:00,24.7,21.1,30.05,NW,313,3.0,9.0,86,0.00,,,0.00,WUHU216DAVISVP2,2013-03-12 11:28:00,
2013-03-12 06:33:00,24.7,21.1,30.05,West,269,3.0,9.0,86,0.00,,,0.00,WUHU216DAVISVP2,2013-03-12 11:33:00,
2013-03-12 06:38:00,24.8,21.2,30.05,WSW,252,3.0,9.0,86,0.00,,,0.00,WUHU216DAVISVP2,2013-03-12 11:38:00,
2013-03-12 06:43:00,24.6,21.0,30.05,West,267,3.0,8.0,86,0.00,,,0.00,WUHU216DAVISVP2,2013-03-12 11:43:00,
2013-03-12 06:48:00,24.5,20.9,30.05,WSW,257,5.0,7.0,86,0.00,,,0.00,WUHU216DAVISVP2,2013-03-12 11:48:00,
2013-03-12 06:53:00,24.5,20.9,30.05,WNW,291,3.0,6.0,86,0.00,,,0.00,WUHU216DAVISVP2,2013-03-12 11:53:00,
2013-03-12 06:58:00,24.5,20.9,30.06,WSW,252,4.0,6.0,86,0.00,,,0.00,WUHU216DAVISVP2,2013-03-12 11:58:00,
2013-03-12 07:03:00,24.5,20.9,30.06,West,271,5.0,7.0,86,0.00,,,0.00,WUHU216DAVISVP2,2013-03-12 12:03:00,
2013-03-12 07:08:00,24.5,20.9,30.06,WSW,253,2.0,7.0,86,0.00,,,0.00,WUHU216DAVISVP2,2013-03-12 12:08:00,
2013-03-12 07:13:00,24.4,20.8,30.06,West,260,2.0,7.0,86,0.00,,,0.00,WUHU216DAVISVP2,2013-03-12 12:13:00,
2013-03-12 07:18:00,24.3,20.7,30.06,West,262,5.0,6.0,86,0.00,,,0.00,WUHU216DAVISVP2,2013-03-12 12:18:00,
2013-03-12 07:23:00,24.2,20.6,30.06,SW,234,2.0,6.0,86,0.00,,,0.00,WUHU216DAVISVP2,2013-03-12 12:23:00,
2013-03-12 07:28:00,24.1,20.5,30.07,West,261,3.0,6.0,86,0.00,,,0.00,WUHU216DAVISVP2,2013-03-12 12:28:00,
2013-03-12 07:33:00,24.1,20.5,30.07,SW,235,2.0,6.0,86,0.00,,,0.00,WUHU216DAVISVP2,2013-03-12 12:33:00,
2013-03-12 07:38:00,24.3,20.7,30.07,West,277,2.0,6.0,86,0.00,,,0.00,WUHU216DAVISVP2,2013-03-12 12:38:00,
2013-03-12 07:43:00,24.7,21.1,30.07,NW,311,1.0,6.0,86,0.00,,,0.00,WUHU216DAVISVP2,2013-03-12 12:43:00,
2013-03-12 07:48:00,25.4,21.8,30.08,WNW,293,2.0,6.0,86,0.00,,,0.00,WUHU216DAVISVP2,2013-03-12 12:48:00,
2013-03-12 07:53:00,26.1,21.9,30.08,WNW,288,3.0,6.0,84,0.00,,,0.00,WUHU216DAVISVP2,2013-03-12 12:53:00,
2013-03-12 07:58:00,26.6,22.1,30.08,NW,304,3.0,6.0,83,0.00,,,0.00,WUHU216DAVISVP2,2013-03-12 12:58:00,
2013-03-12 08:03:00,27.1,22.6,30.08,NNW,337,3.0,7.0,83,0.00,,,0.00,WUHU216DAVISVP2,2013-03-12 13:03:00,
2013-03-12 08:08:00,27.5,22.7,30.08,NW,317,6.0,7.0,82,0.00,,,0.00,WUHU216DAVISVP2,2013-03-12 13:08:00,
2013-03-12 08:13:00,28.2,22.8,30.09,NW,312,7.0,11.0,80,0.00,,,0.00,WUHU216DAVISVP2,2013-03-12 13:13:00,
2013-03-12 08:18:00,29.0,23.0,30.09,WNW,303,8.0,12.0,78,0.00,,,0.00,WUHU216DAVISVP2,2013-03-12 13:18:00,
2013-03-12 08:23:00,29.4,23.1,30.09,NNW,338,8.0,12.0,77,0.00,,,0.00,WUHU216DAVISVP2,2013-03-12 13:23:00,
2013-03-12 08:28:00,29.9,23.3,30.09,NE,39,5.0,11.0,76,0.00,,,0.00,WUHU216DAVISVP2,2013-03-12 13:28:00,
2013-03-12 08:33:00,30.2,23.3,30.09,NNW,338,4.0,12.0,75,0.00,,,0.00,WUHU216DAVISVP2,2013-03-12 13:33:00,
2013-03-12 08:38:00,30.4,23.1,30.10,NW,313,5.0,12.0,74,0.00,,,0.00,WUHU216DAVISVP2,2013-03-12 13:38:00,
2013-03-12 08:43:00,30.6,23.3,30.10,WNW,293,5.0,12.0,74,0.00,,,0.00,WUHU216DAVISVP2,2013-03-12 13:43:00,
2013-03-12 08:48:00,30.8,23.5,30.10,NNE,15,4.0,11.0,74,0.00,,,0.00,WUHU216DAVISVP2,2013-03-12 13:48:00,
2013-03-12 08:53:00,30.9,23.6,30.11,WNW,302,5.0,11.0,74,0.00,,,0.00,WUHU216DAVISVP2,2013-03-12 13:53:00,
2013-03-12 08:58:00,31.0,23.4,30.11,NNW,327,7.0,13.0,73,0.00,,,0.00,WUHU216DAVISVP2,2013-03-12 13:58:00,
2013-03-12 09:03:00,31.2,23.6,30.11,SW,219,4.0,15.0,73,0.00,,,0.00,WUHU216DAVISVP2,2013-03-12 14:03:00,
2013-03-12 09:08:00,31.3,23.7,30.11,NNE,25,5.0,15.0,73,0.00,,,0.00,WUHU216DAVISVP2,2013-03-12 14:08:00,
2013-03-12 09:13:00,31.4,23.5,30.11,NNW,333,5.0,13.0,72,0.00,,,0.00,WUHU216DAVISVP2,2013-03-12 14:13:00,
2013-03-12 09:18:00,31.5,23.6,30.11,NW,304,6.0,14.0,72,0.00,,,0.00,WUHU216DAVISVP2,2013-03-12 14:18:00,
2013-03-12 09:23:00,31.6,23.7,30.12,NNW,345,7.0,14.0,72,0.00,,,0.00,WUHU216DAVISVP2,2013-03-12 14:23:00,
2013-03-12 09:28:00,31.8,23.9,30.12,NW,326,4.0,15.0,72,0.00,,,0.00,WUHU216DAVISVP2,2013-03-12 14:28:00,
2013-03-12 09:34:00,31.9,23.6,30.12,West,280,5.0,15.0,71,0.00,,,0.00,WUHU216DAVISVP2,2013-03-12 14:34:00,
2013-03-12 09:39:00,32.0,23.4,30.12,WNW,301,5.0,15.0,70,0.00,,,0.00,WUHU216DAVISVP2,2013-03-12 14:39:00,
2013-03-12 09:44:00,32.0,23.4,30.13,North,9,11.0,15.0,70,0.00,,,0.00,WUHU216DAVISVP2,2013-03-12 14:44:00,
2013-03-12 09:49:00,32.1,23.5,30.12,NNE,23,5.0,15.0,70,0.00,,,0.00,WUHU216DAVISVP2,2013-03-12 14:49:00,
2013-03-12 09:54:00,32.3,23.7,30.13,NNW,333,6.0,15.0,70,0.00,,,0.00,WUHU216DAVISVP2,2013-03-12 14:54:00,
2013-03-12 09:59:00,32.5,23.5,30.13,NNW,342,8.0,19.0,69,0.00,,,0.00,WUHU216DAVISVP2,2013-03-12 14:59:00,
2013-03-12 10:04:00,32.6,23.6,30.13,North,349,8.0,19.0,69,0.00,,,0.00,WUHU216DAVISVP2,2013-03-12 15:04:00,
2013-03-12 10:09:00,32.7,23.7,30.13,North,1,8.0,19.0,69,0.00,,,0.00,WUHU216DAVISVP2,2013-03-12 15:09:00,
2013-03-12 10:14:00,33.0,24.0,30.13,NW,326,4.0,19.0,69,0.00,,,0.00,WUHU216DAVISVP2,2013-03-12 15:14:00,
2013-03-12 10:19:00,33.1,23.8,30.13,ENE,58,6.0,15.0,68,0.00,,,0.00,WUHU216DAVISVP2,2013-03-12 15:19:00,
2013-03-12 10:24:00,33.2,23.8,30.14,NW,321,9.0,17.0,68,0.00,,,0.00,WUHU216DAVISVP2,2013-03-12 15:24:00,
2013-03-12 10:29:00,33.3,23.9,30.14,NW,314,5.0,18.0,68,0.00,,,0.00,WUHU216DAVISVP2,2013-03-12 15:29:00,
2013-03-12 10:34:00,33.3,23.9,30.14,NNW,334,8.0,18.0,68,0.00,,,0.00,WUHU216DAVISVP2,2013-03-12 15:34:00,
2013-03-12 10:39:00,33.3,23.9,30.14,North,352,15.0,18.0,68,0.00,,,0.00,WUHU216DAVISVP2,2013-03-12 15:39:00,
2013-03-12 10:44:00,33.4,24.3,30.14,WNW,301,3.0,17.0,69,0.00,,,0.00,WUHU216DAVISVP2,2013-03-12 15:44:00,
2013-03-12 10:48:00,33.5,24.1,30.14,NW,319,6.0,17.0,68,0.00,,,0.00,WUHU216DAVISVP2,2013-03-12 15:48:00,
2013-03-12 10:53:00,33.5,24.1,30.15,WNW,297,12.0,15.0,68,0.00,,,0.00,WUHU216DAVISVP2,2013-03-12 15:53:00,
2013-03-12 10:58:00,33.6,24.2,30.15,NNE,13,10.0,15.0,68,0.00,,,0.00,WUHU216DAVISVP2,2013-03-12 15:58:00,
2013-03-12 11:03:00,33.6,23.9,30.15,NNW,338,9.0,18.0,67,0.00,,,0.00,WUHU216DAVISVP2,2013-03-12 16:03:00,
2013-03-12 11:09:00,33.7,24.3,30.15,NNW,330,16.0,18.0,68,0.00,,,0.00,WUHU216DAVISVP2,2013-03-12 16:09:00,
2013-03-12 11:14:00,33.6,24.2,30.15,NNW,333,6.0,18.0,68,0.00,,,0.00,WUHU216DAVISVP2,2013-03-12 16:14:00,
2013-03-12 11:19:00,33.7,24.3,30.15,North,6,6.0,19.0,68,0.00,,,0.00,WUHU216DAVISVP2,2013-03-12 16:19:00,
2013-03-12 11:24:00,34.1,24.7,30.15,NW,321,12.0,19.0,68,0.00,,,0.00,WUHU216DAVISVP2,2013-03-12 16:24:00,
2013-03-12 11:29:00,34.2,24.5,30.16,NW,316,11.0,22.0,67,0.00,,,0.00,WUHU216DAVISVP2,2013-03-12 16:29:00,
2013-03-12 11:34:00,34.1,24.0,30.16,NW,309,6.0,22.0,66,0.00,,,0.00,WUHU216DAVISVP2,2013-03-12 16:34:00,
2013-03-12 11:39:00,34.3,24.2,30.16,NW,323,8.0,22.0,66,0.00,,,0.00,WUHU216DAVISVP2,2013-03-12 16:39:00,
2013-03-12 11:44:00,34.3,23.8,30.17,NW,326,8.0,22.0,65,0.00,,,0.00,WUHU216DAVISVP2,2013-03-12 16:44:00,
2013-03-12 11:49:00,34.2,24.0,30.16,NNW,342,9.0,19.0,66,0.00,,,0.00,WUHU216DAVISVP2,2013-03-12 16:49:00,
2013-03-12 11:54:00,34.0,23.8,30.17,NNE,31,11.0,19.0,66,0.00,,,0.00,WUHU216DAVISVP2,2013-03-12 16:54:00,
2013-03-12 11:59:00,34.0,24.2,30.17,NNW,347,5.0,19.0,67,0.00,,,0.00,WUHU216DAVISVP2,2013-03-12 16:59:00,
2013-03-12 12:04:00,34.1,24.3,30.17,North,10,16.0,23.0,67,0.00,,,0.00,WUHU216DAVISVP2,2013-03-12 17:04:00,
2013-03-12 12:09:00,34.1,24.4,30.18,WNW,302,11.0,23.0,67,0.00,,,0.00,WUHU216DAVISVP2,2013-03-12 17:09:00,
2013-03-12 12:14:00,33.9,24.2,30.18,NNW,346,13.0,23.0,67,0.00,,,0.00,WUHU216DAVISVP2,2013-03-12 17:14:00,
2013-03-12 12:19:00,33.6,23.5,30.18,WNW,283,15.0,24.0,66,0.00,,,0.00,WUHU216DAVISVP2,2013-03-12 17:19:00,
2013-03-12 12:24:00,33.6,23.9,30.18,NW,326,13.0,24.0,67,0.00,,,0.00,WUHU216DAVISVP2,2013-03-12 17:24:00,
2013-03-12 12:29:00,33.6,23.9,30.18,North,360,13.0,23.0,67,0.00,,,0.00,WUHU216DAVISVP2,2013-03-12 17:29:00,
2013-03-12 12:34:00,33.7,24.0,30.18,NW,315,11.0,23.0,67,0.00,,,0.00,WUHU216DAVISVP2,2013-03-12 17:34:00,
2013-03-12 12:39:00,33.4,24.0,30.19,NW,309,16.0,23.0,68,0.00,,,0.00,WUHU216DAVISVP2,2013-03-12 17:39:00,
2013-03-12 12:44:00,33.3,23.9,30.19,NNW,333,11.0,23.0,68,0.00,,,0.00,WUHU216DAVISVP2,2013-03-12 17:44:00,
2013-03-12 12:49:00,33.9,23.8,30.19,NNW,333,12.0,22.0,66,0.00,,,0.00,WUHU216DAVISVP2,2013-03-12 17:49:00,
2013-03-12 12:54:00,34.1,24.0,30.19,WNW,288,4.0,24.0,66,0.00,,,0.00,WUHU216DAVISVP2,2013-03-12 17:54:00,
2013-03-12 12:59:00,34.1,23.3,30.19,North,350,9.0,24.0,64,0.00,,,0.00,WUHU216DAVISVP2,2013-03-12 17:59:00,
2013-03-12 13:04:00,33.9,23.8,30.19,NW,315,10.0,22.0,66,0.00,,,0.00,WUHU216DAVISVP2,2013-03-12 18:04:00,
2013-03-12 13:09:00,33.5,23.7,30.19,North,354,7.0,25.0,67,0.00,,,0.00,WUHU216DAVISVP2,2013-03-12 18:09:00,
2013-03-12 13:14:00,33.3,23.9,30.19,NNW,335,10.0,25.0,68,0.00,,,0.00,WUHU216DAVISVP2,2013-03-12 18:14:00,
2013-03-12 13:19:00,33.2,23.5,30.20,NNW,340,11.0,25.0,67,0.00,,,0.00,WUHU216DAVISVP2,2013-03-12 18:19:00,
2013-03-12 13:24:00,33.0,23.3,30.20,WNW,301,9.0,25.0,67,0.00,,,0.00,WUHU216DAVISVP2,2013-03-12 18:24:00,
2013-03-12 13:29:00,33.1,23.0,30.20,NNW,334,10.0,24.0,66,0.00,,,0.00,WUHU216DAVISVP2,2013-03-12 18:29:00,
2013-03-12 13:34:00,33.1,22.7,30.20,NW,308,12.0,25.0,65,0.00,,,0.00,WUHU216DAVISVP2,2013-03-12 18:34:00,
2013-03-12 13:39:00,33.2,23.1,30.20,NNW,335,4.0,25.0,66,0.00,,,0.00,WUHU216DAVISVP2,2013-03-12 18:39:00,
2013-03-12 13:44:00,33.4,23.3,30.20,NNW,335,11.0,25.0,66,0.00,,,0.00,WUHU216DAVISVP2,2013-03-12 18:44:00,
2013-03-12 13:49:00,33.4,23.3,30.20,NNE,21,13.0,25.0,66,0.00,,,0.00,WUHU216DAVISVP2,2013-03-12 18:49:00,
2013-03-12 13:54:00,33.1,23.0,30.21,NW,314,12.0,21.0,66,0.00,,,0.00,WUHU216DAVISVP2,2013-03-12 18:54:00,
2013-03-12 13:59:00,33.0,22.9,30.21,WNW,283,8.0,26.0,66,0.00,,,0.00,WUHU216DAVISVP2,2013-03-12 18:59:00,
2013-03-12 14:04:00,32.8,22.8,30.20,WNW,299,15.0,26.0,66,0.00,,,0.00,WUHU216DAVISVP2,2013-03-12 19:04:00,
2013-03-12 14:09:00,32.7,23.0,30.20,NNW,328,9.0,26.0,67,0.00,,,0.00,WUHU216DAVISVP2,2013-03-12 19:09:00,
2013-03-12 14:14:00,32.6,22.9,30.21,WNW,291,7.0,26.0,67,0.00,,,0.00,WUHU216DAVISVP2,2013-03-12 19:14:00,
2013-03-12 14:19:00,32.5,23.2,30.21,NNW,345,11.0,19.0,68,0.00,,,0.00,WUHU216DAVISVP2,2013-03-12 19:19:00,
2013-03-12 14:24:00,32.5,23.2,30.21,NNW,337,6.0,21.0,68,0.00,,,0.00,WUHU216DAVISVP2,2013-03-12 19:24:00,
2013-03-12 14:29:00,32.3,22.6,30.21,NNW,340,11.0,21.0,67,0.00,,,0.00,WUHU216DAVISVP2,2013-03-12 19:29:00,
2013-03-12 14:34:00,32.1,22.8,30.21,NNW,347,10.0,20.0,68,0.00,,,0.00,WUHU216DAVISVP2,2013-03-12 19:34:00,
2013-03-12 14:39:00,32.1,22.8,30.21,NW,322,7.0,20.0,68,0.00,,,0.00,WUHU216DAVISVP2,2013-03-12 19:39:00,
2013-03-12 14:44:00,32.1,22.8,30.21,NE,36,16.0,20.0,68,0.00,,,0.00,WUHU216DAVISVP2,2013-03-12 19:44:00,
2013-03-12 14:49:00,32.2,22.9,30.21,NNW,342,7.0,19.0,68,0.00,,,0.00,WUHU216DAVISVP2,2013-03-12 19:49:00,
2013-03-12 14:54:00,32.3,22.6,30.21,NE,49,4.0,19.0,67,0.00,,,0.00,WUHU216DAVISVP2,2013-03-12 19:54:00,
2013-03-12 14:59:00,32.3,22.3,30.21,NW,307,10.0,26.0,66,0.00,,,0.00,WUHU216DAVISVP2,2013-03-12 19:59:00,
2013-03-12 15:04:00,32.2,22.5,30.21,NNE,22,11.0,26.0,67,0.00,,,0.00,WUHU216DAVISVP2,2013-03-12 20:04:00,
2013-03-12 15:09:00,32.3,23.0,30.21,NW,311,4.0,26.0,68,0.00,,,0.00,WUHU216DAVISVP2,2013-03-12 20:09:00,
2013-03-12 15:14:00,32.4,22.7,30.21,NE,39,11.0,26.0,67,0.00,,,0.00,WUHU216DAVISVP2,2013-03-12 20:14:00,
2013-03-12 15:19:00,32.4,22.7,30.21,NNW,335,4.0,20.0,67,0.00,,,0.00,WUHU216DAVISVP2,2013-03-12 20:19:00,
2013-03-12 15:24:00,32.6,22.9,30.21,NNW,342,11.0,20.0,67,0.00,,,0.00,WUHU216DAVISVP2,2013-03-12 20:24:00,
2013-03-12 15:29:00,32.7,22.7,30.21,East,86,7.0,20.0,66,0.00,,,0.00,WUHU216DAVISVP2,2013-03-12 20:29:00,
2013-03-12 15:34:00,32.6,21.8,30.22,West,279,9.0,21.0,64,0.00,,,0.00,WUHU216DAVISVP2,2013-03-12 20:34:00,
2013-03-12 15:39:00,32.4,22.0,30.22,North,11,8.0,21.0,65,0.00,,,0.00,WUHU216DAVISVP2,2013-03-12 20:39:00,
2013-03-12 15:44:00,32.4,22.0,30.22,NNE,19,12.0,21.0,65,0.00,,,0.00,WUHU216DAVISVP2,2013-03-12 20:44:00,
2013-03-12 15:49:00,32.5,22.1,30.22,North,9,4.0,21.0,65,0.00,,,0.00,WUHU216DAVISVP2,2013-03-12 20:49:00,
2013-03-12 15:54:00,32.7,22.3,30.22,NW,307,7.0,20.0,65,0.00,,,0.00,WUHU216DAVISVP2,2013-03-12 20:54:00,
2013-03-12 15:59:00,32.7,21.9,30.22,NW,307,12.0,24.0,64,0.00,,,0.00,WUHU216DAVISVP2,2013-03-12 20:59:00,
2013-03-12 16:04:00,32.6,21.8,30.22,WNW,301,13.0,24.0,64,0.00,,,0.00,WUHU216DAVISVP2,2013-03-12 21:04:00,
2013-03-12 16:09:00,32.6,22.2,30.22,NW,326,14.0,22.0,65,0.00,,,0.00,WUHU216DAVISVP2,2013-03-12 21:09:00,
2013-03-12 16:14:00,32.8,22.4,30.22,NNE,27,11.0,19.0,65,0.00,,,0.00,WUHU216DAVISVP2,2013-03-12 21:14:00,
2013-03-12 16:19:00,32.5,22.1,30.22,NNE,15,16.0,21.0,65,0.00,,,0.00,WUHU216DAVISVP2,2013-03-12 21:19:00,
2013-03-12 16:24:00,32.3,21.9,30.23,NNW,342,8.0,21.0,65,0.00,,,0.00,WUHU216DAVISVP2,2013-03-12 21:24:00,
2013-03-12 16:29:00,32.3,22.3,30.22,NNW,330,10.0,21.0,66,0.00,,,0.00,WUHU216DAVISVP2,2013-03-12 21:29:00,
2013-03-12 16:34:00,32.1,22.1,30.23,North,356,11.0,21.0,66,0.00,,,0.00,WUHU216DAVISVP2,2013-03-12 21:34:00,
2013-03-12 16:39:00,32.0,22.3,30.23,NW,304,12.0,21.0,67,0.00,,,0.00,WUHU216DAVISVP2,2013-03-12 21:39:00,
2013-03-12 16:44:00,32.1,22.4,30.23,WNW,302,11.0,20.0,67,0.00,,,0.00,WUHU216DAVISVP2,2013-03-12 21:44:00,
2013-03-12 16:49:00,32.2,22.2,30.23,North,11,13.0,25.0,66,0.00,,,0.00,WUHU216DAVISVP2,2013-03-12 21:49:00,
2013-03-12 16:54:00,32.3,22.3,30.23,NNW,342,6.0,25.0,66,0.00,,,0.00,WUHU216DAVISVP2,2013-03-12 21:54:00,
2013-03-12 16:59:00,32.3,22.6,30.23,NW,311,7.0,25.0,67,0.00,,,0.00,WUHU216DAVISVP2,2013-03-12 21:59:00,
2013-03-12 17:04:00,32.2,21.8,30.23,NW,319,17.0,23.0,65,0.00,,,0.00,WUHU216DAVISVP2,2013-03-12 22:04:00,
2013-03-12 17:09:00,32.1,21.4,30.23,NNW,345,15.0,26.0,64,0.00,,,0.00,WUHU216DAVISVP2,2013-03-12 22:09:00,
2013-03-12 17:14:00,32.0,21.3,30.24,NW,322,9.0,26.0,64,0.00,,,0.00,WUHU216DAVISVP2,2013-03-12 22:14:00,
2013-03-12 17:19:00,32.0,21.6,30.24,NNE,30,6.0,25.0,65,0.00,,,0.00,WUHU216DAVISVP2,2013-03-12 22:19:00,
2013-03-12 17:24:00,32.1,21.7,30.24,NNW,345,7.0,25.0,65,0.00,,,0.00,WUHU216DAVISVP2,2013-03-12 22:24:00,
2013-03-12 17:29:00,32.0,22.0,30.24,NNW,330,6.0,18.0,66,0.00,,,0.00,WUHU216DAVISVP2,2013-03-12 22:29:00,
2013-03-12 17:34:00,31.9,22.3,30.24,NW,314,10.0,20.0,67,0.00,,,0.00,WUHU216DAVISVP2,2013-03-12 22:34:00,
2013-03-12 17:39:00,31.9,21.9,30.24,North,350,11.0,20.0,66,0.00,,,0.00,WUHU216DAVISVP2,2013-03-12 22:39:00,
2013-03-12 17:44:00,31.9,21.9,30.24,NNW,332,8.0,20.0,66,0.00,,,0.00,WUHU216DAVISVP2,2013-03-12 22:44:00,
2013-03-12 17:49:00,31.7,21.3,30.24,NW,319,8.0,28.0,65,0.00,,,0.00,WUHU216DAVISVP2,2013-03-12 22:49:00,
2013-03-12 17:54:00,31.8,21.8,30.24,North,11,7.0,28.0,66,0.00,,,0.00,WUHU216DAVISVP2,2013-03-12 22:54:00,
2013-03-12 17:59:00,31.6,21.6,30.24,NE,42,5.0,28.0,66,0.00,,,0.00,WUHU216DAVISVP2,2013-03-12 22:59:00,
2013-03-12 18:04:00,31.7,22.1,30.24,NNW,346,8.0,28.0,67,0.00,,,0.00,WUHU216DAVISVP2,2013-03-12 23:04:00,
2013-03-12 18:09:00,31.6,22.0,30.24,NNE,25,9.0,22.0,67,0.00,,,0.00,WUHU216DAVISVP2,2013-03-12 23:09:00,
2013-03-12 18:14:00,31.5,21.5,30.24,NNW,333,7.0,22.0,66,0.00,,,0.00,WUHU216DAVISVP2,2013-03-12 23:14:00,
2013-03-12 18:19:00,31.5,21.9,30.25,NNW,342,6.0,18.0,67,0.00,,,0.00,WUHU216DAVISVP2,2013-03-12 23:19:00,
2013-03-12 18:24:00,31.5,21.8,30.25,WNW,295,8.0,17.0,67,0.00,,,0.00,WUHU216DAVISVP2,2013-03-12 23:24:00,
2013-03-12 18:29:00,31.4,21.8,30.25,NW,323,10.0,16.0,67,0.00,,,0.00,WUHU216DAVISVP2,2013-03-12 23:29:00,
2013-03-12 18:34:00,31.3,21.3,30.25,NNW,338,8.0,16.0,66,0.00,,,0.00,WUHU216DAVISVP2,2013-03-12 23:34:00,
2013-03-12 18:39:00,31.2,21.2,30.25,North,352,7.0,15.0,66,0.00,,,0.00,WUHU216DAVISVP2,2013-03-12 23:39:00,
2013-03-12 18:44:00,31.1,20.8,30.25,NNW,339,9.0,21.0,65,0.00,,,0.00,WUHU216DAVISVP2,2013-03-12 23:44:00,
2013-03-12 18:49:00,31.0,20.7,30.25,North,11,6.0,21.0,65,0.00,,,0.00,WUHU216DAVISVP2,2013-03-12 23:49:00,
2013-03-12 18:54:00,31.0,21.4,30.25,NNW,343,6.0,21.0,67,0.00,,,0.00,WUHU216DAVISVP2,2013-03-12 23:54:00,
2013-03-12 18:59:00,30.9,21.3,30.25,NNW,345,6.0,21.0,67,0.00,,,0.00,WUHU216DAVISVP2,2013-03-12 23:59:00,
2013-03-12 19:04:00,30.8,20.8,30.25,WNW,294,10.0,17.0,66,0.00,,,0.00,WUHU216DAVISVP2,2013-03-13 00:04:00,
2013-03-12 19:09:00,30.8,20.8,30.26,NW,316,3.0,18.0,66,0.00,,,0.00,WUHU216DAVISVP2,2013-03-13 00:09:00,
2013-03-12 19:14:00,30.7,20.7,30.26,NE,51,7.0,18.0,66,0.00,,,0.00,WUHU216DAVISVP2,2013-03-13 00:14:00,
2013-03-12 19:19:00,30.6,20.6,30.26,NNE,15,11.0,17.0,66,0.00,,,0.00,WUHU216DAVISVP2,2013-03-13 00:19:00,
2013-03-12 19:24:00,30.5,20.6,30.26,NNW,338,12.0,17.0,66,0.00,,,0.00,WUHU216DAVISVP2,2013-03-13 00:24:00,
2013-03-12 19:29:00,30.4,20.8,30.26,WNW,290,4.0,17.0,67,0.00,,,0.00,WUHU216DAVISVP2,2013-03-13 00:29:00,
2013-03-12 19:34:00,30.4,21.2,30.27,NNW,344,9.0,19.0,68,0.00,,,0.00,WUHU216DAVISVP2,2013-03-13 00:34:00,
2013-03-12 19:39:00,30.3,21.1,30.27,NNW,330,9.0,19.0,68,0.00,,,0.00,WUHU216DAVISVP2,2013-03-13 00:39:00,
2013-03-12 19:44:00,30.3,21.4,30.27,NW,316,8.0,18.0,69,0.00,,,0.00,WUHU216DAVISVP2,2013-03-13 00:44:00,
2013-03-12 19:49:00,30.2,21.3,30.27,NW,311,6.0,18.0,69,0.00,,,0.00,WUHU216DAVISVP2,2013-03-13 00:49:00,
2013-03-12 19:54:00,30.1,21.2,30.27,North,349,5.0,16.0,69,0.00,,,0.00,WUHU216DAVISVP2,2013-03-13 00:54:00,
2013-03-12 19:59:00,30.1,21.2,30.27,NNW,334,6.0,16.0,69,0.00,,,0.00,WUHU216DAVISVP2,2013-03-13 00:59:00,
2013-03-12 20:04:00,30.0,21.4,30.27,NNE,20,9.0,15.0,70,0.00,,,0.00,WUHU216DAVISVP2,2013-03-13 01:04:00,
2013-03-12 20:09:00,30.0,21.1,30.27,NNW,338,5.0,17.0,69,0.00,,,0.00,WUHU216DAVISVP2,2013-03-13 01:09:00,
2013-03-12 20:14:00,29.9,21.0,30.27,NNE,19,11.0,17.0,69,0.00,,,0.00,WUHU216DAVISVP2,2013-03-13 01:14:00,
2013-03-12 20:19:00,29.8,21.3,30.28,North,11,5.0,16.0,70,0.00,,,0.00,WUHU216DAVISVP2,2013-03-13 01:19:00,
2013-03-12 20:24:00,29.8,21.2,30.28,North,354,7.0,16.0,70,0.00,,,0.00,WUHU216DAVISVP2,2013-03-13 01:24:00,
2013-03-12 20:29:00,29.6,21.1,30.28,North,352,18.0,18.0,70,0.00,,,0.00,WUHU216DAVISVP2,2013-03-13 01:29:00,
2013-03-12 20:34:00,29.4,21.2,30.28,NW,326,8.0,18.0,71,0.00,,,0.00,WUHU216DAVISVP2,2013-03-13 01:34:00,
2013-03-12 20:39:00,29.3,21.1,30.28,NNW,332,7.0,18.0,71,0.00,,,0.00,WUHU216DAVISVP2,2013-03-13 01:39:00,
2013-03-12 20:44:00,29.1,21.3,30.28,North,352,6.0,17.0,72,0.00,,,0.00,WUHU216DAVISVP2,2013-03-13 01:44:00,
2013-03-12 20:49:00,29.0,21.2,30.28,WNW,301,4.0,14.0,72,0.00,,,0.00,WUHU216DAVISVP2,2013-03-13 01:49:00,
2013-03-12 20:54:00,29.1,21.6,30.29,NNW,339,7.0,16.0,73,0.00,,,0.00,WUHU216DAVISVP2,2013-03-13 01:54:00,
2013-03-12 20:59:00,29.2,21.7,30.29,North,9,3.0,16.0,73,0.00,,,0.00,WUHU216DAVISVP2,2013-03-13 01:59:00,
2013-03-12 21:04:00,29.2,21.7,30.29,NNW,345,9.0,14.0,73,0.00,,,0.00,WUHU216DAVISVP2,2013-03-13 02:04:00,
2013-03-12 21:09:00,29.2,21.7,30.29,NNE,23,6.0,11.0,73,0.00,,,0.00,WUHU216DAVISVP2,2013-03-13 02:09:00,
2013-03-12 21:14:00,29.1,21.8,30.28,NNW,336,2.0,11.0,74,0.00,,,0.00,WUHU216DAVISVP2,2013-03-13 02:14:00,
2013-03-12 21:19:00,29.0,21.7,30.29,NNE,32,9.0,11.0,74,0.00,,,0.00,WUHU216DAVISVP2,2013-03-13 02:19:00,
2013-03-12 21:24:00,29.0,21.7,30.29,NNE,33,8.0,13.0,74,0.00,,,0.00,WUHU216DAVISVP2,2013-03-13 02:24:00,
2013-03-12 21:29:00,28.9,22.0,30.29,NNW,332,5.0,13.0,75,0.00,,,0.00,WUHU216DAVISVP2,2013-03-13 02:29:00,
2013-03-12 21:34:00,28.9,22.0,30.29,NW,326,4.0,12.0,75,0.00,,,0.00,WUHU216DAVISVP2,2013-03-13 02:34:00,
2013-03-12 21:39:00,28.9,22.3,30.29,NNW,342,9.0,13.0,76,0.00,,,0.00,WUHU216DAVISVP2,2013-03-13 02:39:00,
2013-03-12 21:44:00,28.9,22.0,30.29,North,11,10.0,14.0,75,0.00,,,0.00,WUHU216DAVISVP2,2013-03-13 02:44:00,
2013-03-12 21:49:00,28.9,22.0,30.29,North,354,9.0,14.0,75,0.00,,,0.00,WUHU216DAVISVP2,2013-03-13 02:49:00,
2013-03-12 21:54:00,28.8,21.9,30.29,NW,324,6.0,13.0,75,0.00,,,0.00,WUHU216DAVISVP2,2013-03-13 02:54:00,
2013-03-12 22:00:00,28.7,21.8,30.29,North,356,4.0,13.0,75,0.00,,,0.00,WUHU216DAVISVP2,2013-03-13 03:00:00,
2013-03-12 22:05:00,28.5,21.9,30.30,NE,37,2.0,13.0,76,0.00,,,0.00,WUHU216DAVISVP2,2013-03-13 03:05:00,
2013-03-12 22:10:00,28.3,21.7,30.30,WNW,287,3.0,11.0,76,0.00,,,0.00,WUHU216DAVISVP2,2013-03-13 03:10:00,
2013-03-12 22:15:00,28.2,21.6,30.30,West,273,2.0,14.0,76,0.00,,,0.00,WUHU216DAVISVP2,2013-03-13 03:15:00,
2013-03-12 22:20:00,28.1,21.8,30.30,NNE,15,6.0,14.0,77,0.00,,,0.00,WUHU216DAVISVP2,2013-03-13 03:20:00,
2013-03-12 22:25:00,28.0,21.4,30.30,North,352,5.0,19.0,76,0.00,,,0.00,WUHU216DAVISVP2,2013-03-13 03:25:00,
2013-03-12 22:30:00,27.8,21.2,30.30,NNE,13,9.0,19.0,76,0.00,,,0.00,WUHU216DAVISVP2,2013-03-13 03:30:00,
2013-03-12 22:35:00,27.7,20.8,30.30,NNE,30,6.0,19.0,75,0.00,,,0.00,WUHU216DAVISVP2,2013-03-13 03:35:00,
2013-03-12 22:40:00,27.5,20.7,30.30,NNW,342,6.0,19.0,75,0.00,,,0.00,WUHU216DAVISVP2,2013-03-13 03:40:00,
2013-03-12 22:45:00,27.3,20.5,30.30,North,354,6.0,12.0,75,0.00,,,0.00,WUHU216DAVISVP2,2013-03-13 03:45:00,
2013-03-12 22:50:00,27.2,20.4,30.30,NNE,14,6.0,12.0,75,0.00,,,0.00,WUHU216DAVISVP2,2013-03-13 03:50:00,
2013-03-12 22:55:00,27.2,20.4,30.30,NNW,346,5.0,13.0,75,0.00,,,0.00,WUHU216DAVISVP2,2013-03-13 03:55:00,
2013-03-12 23:00:00,27.1,20.3,30.30,NNE,19,10.0,13.0,75,0.00,,,0.00,WUHU216DAVISVP2,2013-03-13 04:00:00,
2013-03-12 23:05:00,26.9,20.4,30.31,North,359,4.0,12.0,76,0.00,,,0.00,WUHU216DAVISVP2,2013-03-13 04:05:00,
2013-03-12 23:10:00,26.9,20.4,30.31,North,11,4.0,12.0,76,0.00,,,0.00,WUHU216DAVISVP2,2013-03-13 04:10:00,
2013-03-12 23:15:00,26.7,20.2,30.31,NNW,347,5.0,11.0,76,0.00,,,0.00,WUHU216DAVISVP2,2013-03-13 04:15:00,
2013-03-12 23:20:00,26.6,20.1,30.31,North,1,5.0,11.0,76,0.00,,,0.00,WUHU216DAVISVP2,2013-03-13 04:20:00,
2013-03-12 23:25:00,26.5,20.0,30.31,North,11,2.0,11.0,76,0.00,,,0.00,WUHU216DAVISVP2,2013-03-13 04:25:00,
2013-03-12 23:30:00,26.3,19.8,30.31,NW,318,1.0,10.0,76,0.00,,,0.00,WUHU216DAVISVP2,2013-03-13 04:30:00,
2013-03-12 23:35:00,26.2,19.7,30.31,NNW,333,4.0,11.0,76,0.00,,,0.00,WUHU216DAVISVP2,2013-03-13 04:35:00,
2013-03-12 23:40:00,26.0,19.5,30.31,NNW,346,5.0,11.0,76,0.00,,,0.00,WUHU216DAVISVP2,2013-03-13 04:40:00,
2013-03-12 23:45:00,25.9,19.7,30.32,NW,318,3.0,10.0,77,0.00,,,0.00,WUHU216DAVISVP2,2013-03-13 04:45:00,
2013-03-12 23:50:00,25.9,19.7,30.32,North,9,3.0,10.0,77,0.00,,,0.00,WUHU216DAVISVP2,2013-03-13 04:50:00,
2013-03-12 23:55:00,25.8,19.6,30.32,NNE,18,2.0,8.0,77,0.00,,,0.00,WUHU216DAVISVP2,2013-03-13 04:55:00,